Portada
METAR-TAF:

METAR-TAF

Aeroports :

Lewis University Airport

Romeoville, Illinois, Estats Units d'Amèrica

latitud: 41-36-30N, longitud: 088-05-39W, altitud: 205 m

Observació

L'informe es va fer fa 33 minuts, a les 14:35 UTC
Vent 8 kt del Sud-Est
Temperatura 19°C
Humitat 73%
Pressió 1018 hPa
Visibilitat: 16.1 km
Cel ennuvolat a una alçada de 7500 ft

METAR: KLOT 241435Z AUTO 13008KT 10SM BKN075 19/14 A3007 RMK AO2 T01870142

Hora: 10:08 (15:08 UTC)


TAF: manca

Observacions i pronòstics meteorològics de més de 4000 aeroports (METAR i TAF).

Les estacions disponibles són els punts grocs i vermells al mapa.

Posi el ratolí al punt desitjat per veure el nom de l'estació.

Feu clic per veure les observacions i els pronòstics meteorològics.

Per canviar el mapa: feu clic els botons verds amb una creu de color negre per apropar; al botó verd amb un guió per allunyar la imatge; o en les fletxes verdes per a mapes adjacents.


METAR-TAF: